Flag for Norway Weather past 2 weeks in Raufoss, Norway

Now
39 °F

Chilly.


Feels Like: 39 °F
Forecast: 33 / 45 °F
Wind: 1 mph from Southwest

Location: Lillehammer-Saetherengen

Current Time: Mar 6, 2015 at 2:42:03 PM

Latest Report: Mar 6, 2015 at 2:00 PM


Visibility: N/A

Pressure: 30.11 "Hg

Humidity: 70%

Dew point: 30 °F

Location of RaufossLocation

Historic Weather in Raufoss — Graph

°F

Raufoss temperature yesterday

Maximum temperature yesterday: 34 °F (at 8:00 PM)
Minimum temperature yesterday: 18 °F (at 7:00 AM)
Average temperature yesterday: 26 °F

Past Weeks' High & Low Weather Summary

 TemperatureHumidityPressure
High49 °F (Feb 19, 2:00 PM)98% (Feb 25, 7:00 AM)30.28 "Hg (Feb 25, 7:00 AM)
Low17 °F (Feb 22, 10:00 PM)41% (Feb 20, 2:00 PM)28.91 "Hg (Mar 1, 8:00 PM)
Average32 °F85%29.48 "Hg
* Reported Feb 19 1:00 PM — Mar 6 1:00 PM, Raufoss, Weather by CustomWeather, © 2015

Note: Actual official high and low records may vary slightly from our data, if they occured in-between our weather recording intervals... More about our weather records

Advertising

Raufoss weather history for previous 24 hours

 ConditionsComfort  
Time TempWeatherWind HumidityBarometerVisibility
1:00 PM
Fri, Mar 6
39 °FChilly.1 mph70%30.11 "HgN/A
12:00 PM36 °FChilly.1 mph71%30.14 "HgN/A
11:00 AM35 °FChilly.2 mph76%30.11 "HgN/A
10:00 AM33 °FChilly.2 mph81%30.11 "HgN/A
9:00 AM31 °FChilly.2 mph91%30.11 "HgN/A
8:00 AM29 °FChilly.2 mph93%30.08 "HgN/A
7:00 AM29 °FChilly.3 mph95%30.07 "HgN/A
6:00 AM26 °FChilly.1 mph92%30.06 "HgN/A
5:00 AM28 °FChilly.2 mph94%30.04 "HgN/A
4:00 AM28 °FChilly.1 mph92%30.03 "HgN/A
3:00 AM30 °FChilly.2 mph91%30.01 "HgN/A
2:00 AM30 °FChilly.1 mph90%30.01 "HgN/A
1:00 AM31 °FChilly.1 mph88%30.01 "HgN/A
12:00 AM32 °FChilly.1 mph86%30.01 "HgN/A
11:00 PM
Thu, Mar 5
31 °FChilly.1 mph88%30.03 "HgN/A
10:00 PM32 °FChilly.1 mph84%30.03 "HgN/A
9:00 PM33 °FChilly.3 mph78%30.04 "HgN/A
8:00 PM34 °FChilly.3 mph80%30.06 "HgN/A
7:00 PM34 °FChilly.3 mph86%30.07 "HgN/A
6:00 PM30 °FChilly.1 mph90%30.10 "HgN/A
5:00 PM30 °FChilly.1 mph90%30.14 "HgN/A
4:00 PM28 °FChilly.1 mph88%30.16 "HgN/A
3:00 PM26 °FChilly.1 mph90%30.19 "HgN/A
2:00 PM25 °FCold.2 mph89%30.22 "HgN/A
Weather by CustomWeather, © 2015

See weather overviewHow to use our weather pages